Location: Doux
(49.5045°N, 4.4321°E)
Time: 06:21:24
(UTC+00:00)

Okean 2 Rocket - Pass Details

Date: 23 May 2024
Orbit: 614 x 637 km, 82.5° (Epoch: 19 June)

Event Time Altitude Azimuth Distance (km) Brightness Sun altitude
Rises 02:46:57 0° 348° (NNW) 2,898 7.0 -8.4°
Reaches altitude 10° 02:49:11 10° 347° (NNW) 1,988 6.1 -8.2°
Maximum altitude 02:53:34 73° 264° (W) 651 3.0 -7.7°
Drops below altitude 10° 02:57:57 10° 179° (S) 1,981 5.3 -7.2°
Sets 03:00:10 0° 177° (S) 2,885 6.1 -6.9°
